This is the latest recevied weather packets stored in our database for station/object AE5HO. If no packets are shown the sender has not sent any weather packets the latest 10 day(s).
| Time | Temp. | Humidity | Pressure | Rain* | Wind** | Luminosity | Snow |
|---|---|---|---|---|---|---|---|
| 1777396395 | 28.89° C | 79% | 1012.2 hPa | 0 mm | - | 297 W/m² | - |
| 1777396092 | 28.89° C | 79% | 1012.3 hPa | 0 mm | - | 169 W/m² | - |
| 1777395787 | 28.89° C | 79% | 1012.3 hPa | 0 mm | - | 150 W/m² | - |
| 1777395482 | 28.33° C | 80% | 1012.1 hPa | 0 mm | - | 166 W/m² | - |
| 1777395180 | 27.78° C | 81% | 1012.1 hPa | 0 mm | - | 235 W/m² | - |
| 1777394877 | 27.78° C | 81% | 1012.4 hPa | 0 mm | - | 124 W/m² | - |
| 1777394573 | 27.78° C | 81% | 1012.3 hPa | 0 mm | - | 133 W/m² | - |
| 1777394270 | 28.33° C | 81% | 1012.3 hPa | 0 mm | - | 136 W/m² | - |
| 1777393966 | 27.78° C | 82% | 1012.4 hPa | 0 mm | - | 133 W/m² | - |
| 1777393665 | 27.78° C | 82% | 1012.7 hPa | 0 mm | - | 109 W/m² | - |
| 1777393361 | 27.78° C | 83% | 1012.7 hPa | 0 mm | - | 104 W/m² | - |
| 1777393057 | 27.22° C | 84% | 1012.6 hPa | 0 mm | - | 98 W/m² | - |
| 1777392753 | 26.67° C | 84% | 1012.7 hPa | 0 mm | - | 89 W/m² | - |
| 1777392449 | 26.67° C | 84% | 1012.9 hPa | 0 mm | - | 69 W/m² | - |
| 1777392145 | 26.67° C | 84% | 1012.6 hPa | 0 mm | - | 38 W/m² | - |
| 1777391840 | 26.67° C | 84% | 1012.7 hPa | 0 mm | - | 31 W/m² | - |
| 1777391536 | 26.67° C | 84% | 1012.7 hPa | 0 mm | - | 39 W/m² | - |
| 1777391232 | 27.22° C | 84% | 1012.4 hPa | 0 mm | - | 45 W/m² | - |
| 1777390930 | 27.22° C | 84% | 1012.4 hPa | 0 mm | - | 48 W/m² | - |
| 1777390625 | 26.67° C | 84% | 1012.5 hPa | 0 mm | - | 61 W/m² | - |
| 1777390321 | 26.67° C | 84% | 1012.3 hPa | 0 mm | - | 69 W/m² | - |
| 1777390017 | 26.67° C | 84% | 1012.2 hPa | 0 mm | - | 69 W/m² | - |
| 1777389715 | 27.22° C | 84% | 1012.1 hPa | 0 mm | - | 61 W/m² | - |
| 1777389411 | 27.22° C | 84% | 1012.2 hPa | 0 mm | - | 57 W/m² | - |
| 1777389109 | 26.67° C | 85% | 1012.1 hPa | 0 mm | - | 98 W/m² | - |
* Rain latest hour (hover to see other rain measurements)
** Current wind speed in m/s (hover to see current wind gust speed)